La Ceiba, Honduras

11:10 AM CST on September 23, 2017 (GMT -0600)
Goloson International

Weather History for MHLC - February, 2013

Change the Weather History Date:

Thursday, February 14, 2013

  Actual Average Record
Temperature  
Mean Temperature 75 °F -  
Max Temperature 84 °F 81 °F 86 °F (2008)
Min Temperature 66 °F 66 °F 62 °F (2005)
Cooling Degree Days 10    
Growing Degree Days 25 (Base 50)    
Moisture  
Dew Point 71 °F    
Average Humidity 79    
Maximum Humidity 94    
Minimum Humidity 63    
Precipitation  
Precipitation 0.00 in 0.37 in - ()
Sea Level Pressure  
Sea Level Pressure 29.88 in    
Wind  
Wind Speed 3 mph ()    
Max Wind Speed 9 mph    
Max Gust Speed -    
Visibility 6.6 miles    
Events      
Averages and records for this station are not official NWS values.
T = Trace of Precipitation, MM = Missing Value Source: Averaged Metar Reports

Daily Weather History Graph

Daily Weather History Graph

Search for Another Location

Airport or City:

Trip Planner

Search our weather history database for the weather conditions in past years. The results will help you decide how hot, cold, wet, or windy it might be!

Date:

Astronomy

Feb. 14, 2013 Rise Set
Actual Time 6:12 AM CST 5:50 PM CST
Civil Twilight 5:50 AM CST 6:12 PM CST
Nautical Twilight 5:25 AM CST 6:38 PM CST
Astronomical Twilight 5:00 AM CST 7:03 PM CST
Moon 9:06 AM CST (2/14) 9:55 PM CST (2/14)
Length of Visible Light 12h 21m
Length of Day
11h 37m
Waxing Crescent, 22% of the Moon is Illuminated
Feb 14
Waxing Crescent
Feb 17
First Quarter
Feb 25
Full
Mar 4
Last Quarter
Mar 11
New

Hourly Weather History & Observations

Time (CST) Temp. Heat Index Dew Point Humidity Pressure Visibility Wind Dir Wind Speed Gust Speed Precip Events Conditions
12:00 AM 69 °F - 65 °F 84% 29.84 in 6 mi South 3.5 mph - -   Haze
12:00 AM 69.8 °F - 64.4 °F 83% 29.83 in 6.2 mi South 6.9 mph - N/A   Partly Cloudy
6:00 AM 68 °F - 66 °F 93% 29.86 in 12 mi Calm Calm - -   Haze
6:00 AM 68.0 °F - 66.2 °F 94% 29.86 in 6.2 mi Calm Calm - N/A   Partly Cloudy
7:00 AM 71.6 °F - 68.0 °F 88% 29.86 in 6.2 mi Calm Calm - N/A   Partly Cloudy
8:00 AM 77.0 °F - 69.8 °F 78% 29.89 in 6.2 mi Calm Calm - N/A   Partly Cloudy
9:00 AM 81 °F - 72 °F 68% 29.90 in 12 mi Calm Calm - -   Haze
9:00 AM 80.6 °F 84.6 °F 71.6 °F 74% 29.89 in 6.2 mi Calm Calm - N/A   Partly Cloudy
10:00 AM 82.4 °F 87.2 °F 71.6 °F 70% 29.92 in 6.2 mi NW 4.6 mph - N/A   Partly Cloudy
11:00 AM 84.2 °F 90.9 °F 73.4 °F 70% 29.92 in 6.2 mi North 6.9 mph - N/A   Partly Cloudy
12:00 PM 83 °F - 72 °F 63% 29.91 in 6 mi NW 9.2 mph - -   Haze
12:00 PM 82.4 °F 88.2 °F 73.4 °F 74% 29.89 in 6.2 mi NW 9.2 mph - N/A   Scattered Clouds
1:00 PM 84.2 °F 90.9 °F 73.4 °F 70% 29.89 in 6.2 mi NNW 6.9 mph - N/A   Scattered Clouds
2:00 PM 82.4 °F 89.5 °F 75.2 °F 79% 29.86 in 6.2 mi NNW 6.9 mph - N/A   Scattered Clouds
3:00 PM 83 °F - 73 °F 64% 29.86 in 6 mi NW 6.9 mph - -   Haze
3:00 PM 82.4 °F 88.2 °F 73.4 °F 74% 29.83 in 6.2 mi NW 5.8 mph - N/A   Scattered Clouds
4:00 PM 82.4 °F 88.2 °F 73.4 °F 74% 29.83 in 6.2 mi NW 5.8 mph - N/A   Scattered Clouds
5:00 PM 80.6 °F 85.4 °F 73.4 °F 79% 29.86 in 6.2 mi WNW 3.5 mph - N/A   Scattered Clouds
6:00 PM 80.6 °F 85.4 °F 73.4 °F 79% 29.86 in 6.2 mi Calm Calm - N/A   Scattered Clouds
7:00 PM 77.0 °F - 71.6 °F 83% 29.89 in 6.2 mi SE 3.5 mph - N/A   Scattered Clouds
8:00 PM 75.2 °F - 71.6 °F 89% 29.89 in 6.2 mi Calm Calm - N/A   Partly Cloudy
9:00 PM 72 °F - 69 °F 88% 29.92 in 6 mi SE 3.5 mph - -   Haze
9:00 PM 73.4 °F - 69.8 °F 88% 29.92 in 6.2 mi SE 3.5 mph - N/A   Partly Cloudy
10:00 PM 71.6 °F - 68.0 °F 88% 29.92 in 6.2 mi Variable 2.3 mph - N/A   Partly Cloudy
11:00 PM 69.8 °F - 66.2 °F 88% 29.92 in 6.2 mi SSW 2.3 mph - N/A   Partly Cloudy